Station 46084 (LLNR 1028) - CAPE EDGECUMBE - 25NM SSW of Cape Edgecumbe, AK Image indicating link to RSS feed of recent meteorological observations for station 46084


Conditions at 46084 as of
(2:30 pm AKDT)
2230 GMT on 04/17/2024:
     

Click on the graph icon in the table below to see a time series plot of the last five days of that observation.

5-day plot - Wind Speed Wind Speed (WSPD): 1.9 kts
5-day plot - Wind Gust Wind Gust (GST): 5.8 kts
5-day plot - Atmospheric Pressure Atmospheric Pressure (PRES):30.55 in
5-day plot - Water Temperature Water Temperature (WTMP): 45.1 °F
5-day plot - Wind Speed at 10 Meters Wind Speed at 10 meters (WSPD10M): 1.9 kts
5-day plot - Wind Speed at 20 Meters Wind Speed at 20 meters (WSPD20M): 1.9 kts
5-day plot -  Wind Speed, Wind Gust and Atmospheric Pressure Combined plot of Wind Speed, Gust, and Air Pressure
Supplemental Measurements
Highest 1-minute Wind Speed
Time (AKDT)5-day plot - 1-Minute Wind Speed WSPD 5-day plot - 1-Minute Wind Direction WDIR
2:21 pm 1.9 kts-
Previous observations
TIME
(AKDT)
5-day plot - Wind Direction
WDIR
 
5-day plot - Wind Speed
WSPD
kts
5-day plot - Wind Gust
GST
kts
5-day plot - Wave Height
WVHT
ft
5-day plot - Dominant Wave Period
DPD
sec
5-day plot - Average Wave Period
APD
sec
5-day plot - Mean Wave Direction
MWD
 
5-day plot - Atmospheric Pressure
PRES
in
5-day plot - Pressure Tendency
PTDY
in
5-day plot - Air Temperature
ATMP
°F
5-day plot - Water Temperature
WTMP
°F
5-day plot - Dew Point
DEWP
°F
5-day plot - Salinity
SAL
psu
5-day plot - Visibility
VIS
nmi
5-day plot - Tide (above MLLW)
TIDE
ft
2024-04-17 02:20 pm- 1.9 3.9 2.6 126.0SSW30.55-- 45.3----
2024-04-17 02:10 pm- 1.9 3.9 2.6-6.0SSW30.55-- 45.1----
2024-04-17 02:00 pm- 1.9 3.9----30.55+0.01- 45.1----
2024-04-17 01:50 pm- 1.9 5.8 2.3 125.5 SW30.55-- 45.1----
2024-04-17 01:40 pm- 1.9 5.8----30.55-- 45.1----
2024-04-17 01:30 pm- 1.9 5.8----30.55-- 45.1----
2024-04-17 01:20 pm- 1.9 5.8 2.3 125.3SSW30.55-- 45.1----
2024-04-17 01:10 pm- 1.9 5.8 2.3-5.3SSW30.55-- 45.0----
2024-04-17 01:00 pm- 3.9 7.8----30.55+0.03- 45.0----
2024-04-17 12:50 pm- 1.9 5.8 2.3 125.1 SW30.55-- 45.0----
2024-04-17 12:40 pm- 3.9 7.8----30.55-- 45.0----
2024-04-17 12:30 pm- 1.9 7.8----30.55-- 45.0----
2024-04-17 12:20 pm- 1.9 5.8 2.3 115.2WSW30.55-- 45.0----
2024-04-17 12:10 pm- 1.9 7.8 2.3-5.2WSW30.55-- 45.0----
2024-04-17 12:00 pm- 1.9 7.8----30.55+0.02- 44.8----
2024-04-17 11:50 am- 3.9 7.8 2.3 145.1 SE30.54-- 44.8----
2024-04-17 11:40 am- 3.9 7.8----30.54-- 44.8----
2024-04-17 11:30 am- 3.9 7.8----30.55-- 44.8----
2024-04-17 11:20 am- 3.9 7.8 2.3 175.6WSW30.54-- 44.8----
2024-04-17 11:10 am- 3.9 7.8 2.3-5.6WSW30.54-- 44.8----
2024-04-17 11:00 am- 3.9 7.8----30.53+0.01- 44.8----
2024-04-17 10:50 am- 3.9 7.8 2.3 115.5WSW30.53-- 44.8----
2024-04-17 10:40 am- 3.9 7.8----30.53-- 44.8----
2024-04-17 10:30 am- 3.9 7.8----30.53-- 44.8----
2024-04-17 10:20 am- 3.9 7.8 2.0 146.1SSW30.53-- 44.8----
2024-04-17 10:10 am- 3.9 9.7 2.0-6.1SSW30.53-- 44.8----
2024-04-17 10:00 am- 1.9 7.8----30.53+0.00- 44.6----
2024-04-17 09:50 am- 3.9 7.8 2.0 156.6 S30.53-- 44.6----
2024-04-17 09:40 am- 3.9 7.8----30.53-- 44.6----
2024-04-17 09:30 am- 3.9 7.8----30.53-- 44.6----
2024-04-17 09:20 am- 1.9 7.8 2.3 146.8 SW30.53-- 44.6----
2024-04-17 09:10 am- 3.9 7.8----30.53-- 44.6----
2024-04-17 09:00 am- 1.9 7.8 2.3-6.8 SW30.53+0.01- 44.6----
2024-04-17 08:50 am- 3.9 7.8 2.3 147.0WNW30.53-- 44.6----
2024-04-17 08:40 am- 3.9 7.8 2.3-7.0WNW30.53-- 44.6----
2024-04-17 08:30 am- 3.9 7.8----30.53-- 44.6----
2024-04-17 08:20 am- 1.9 7.8 2.3 196.9 SE30.52-- 44.6----
2024-04-17 08:10 am- 1.9 5.8 2.3-6.9 SE30.52-- 44.6----
2024-04-17 08:00 am- 1.9 5.8----30.52+0.01- 44.6----
2024-04-17 07:50 am- 3.9 7.8 2.3 157.0SSW30.52-- 44.6----
2024-04-17 07:40 am- 3.9 7.8----30.52-- 44.6----
2024-04-17 07:30 am- 3.9 5.8----30.52-- 44.6----
2024-04-17 07:20 am- 1.9 5.8 2.3 176.9 SW30.52-- 44.6----
2024-04-17 07:10 am- 1.9 3.9 2.3-6.9 SW30.52-- 44.6----
2024-04-17 07:00 am- 1.9 3.9----30.52+0.00- 44.6----
2024-04-17 06:50 am- 1.9 3.9 2.3 177.2SSE30.52-- 44.6----
2024-04-17 06:40 am- 1.9 3.9----30.52-- 44.6----
2024-04-17 06:30 am- 1.9 3.9----30.52-- 44.6----
2024-04-17 06:20 am- 0.0 3.9 2.3 156.7SSW30.52-- 44.6----
2024-04-17 06:10 am- 1.9 3.9 2.3-6.7SSW30.51-- 44.6----
2024-04-17 06:00 am- 0.0 1.9----30.51+0.00- 44.6----
2024-04-17 05:50 am- 0.0 1.9 2.3 76.5 W30.51-- 44.6----
2024-04-17 05:40 am- 0.0 1.9----30.51-- 44.6----
2024-04-17 05:30 am- 0.0 1.9----30.51-- 44.6----
2024-04-17 05:20 am- 0.0 3.9 2.6 146.7SSE30.51-- 44.6----
2024-04-17 05:10 am- 0.0 1.9 2.6-6.7SSE30.51-- 44.8----
2024-04-17 05:00 am- 0.0 3.9----30.51+0.00- 44.8----
2024-04-17 04:50 am- 0.0 1.9 2.6 176.4 N30.51-- 44.6----
2024-04-17 04:40 am- 0.0 3.9----30.51-- 44.6----
2024-04-17 04:30 am- 0.0 1.9----30.51-- 44.8----
2024-04-17 04:20 am- 0.0 1.9 2.6 146.3WSW30.52-- 44.8----
2024-04-17 04:10 am- 0.0 0.0 2.6-6.3WSW30.51-- 44.8----
2024-04-17 04:00 am- 0.0 0.0----30.51+0.01- 44.8----
2024-04-17 03:50 am- 0.0 0.0 2.6 156.1SSW30.51-- 45.0----
2024-04-17 03:40 am- 0.0 0.0----30.51-- 45.0----
2024-04-17 03:30 am- 0.0 0.0----30.51-- 45.0----
2024-04-17 03:20 am- 0.0 0.0 2.6 75.4 W30.51-- 45.0----
2024-04-17 03:10 am- 0.0 0.0 2.6-5.4 W30.51-- 45.0----
2024-04-17 03:00 am- 0.0 0.0----30.51+0.01- 45.0----
2024-04-17 02:50 am- 0.0 0.0 3.0 155.7SSE30.51-- 45.0----
2024-04-17 02:40 am- 0.0 1.9----30.51-- 45.0----
2024-04-17 02:30 am- 0.0 1.9----30.51-- 45.0----
2024-04-17 02:20 am- 0.0 1.9 3.0 195.4 NW30.51-- 45.0----
2024-04-17 02:10 am- 0.0 1.9 3.0-5.4 NW30.51-- 45.1----
2024-04-17 02:00 am- 0.0 1.9----30.51+0.01- 45.1----
2024-04-17 01:50 am- 0.0 1.9 3.0 155.3WSW30.51-- 44.8----
2024-04-17 01:40 am- 0.0 1.9----30.51-- 44.8----
2024-04-17 01:30 am- 0.0 1.9----30.51-- 44.6----
2024-04-17 01:20 am- 0.0 1.9 3.0 75.0WSW30.50-- 44.6----
2024-04-17 01:10 am- 0.0 3.9 3.0-5.0WSW30.50-- 44.6----
2024-04-17 01:00 am- 0.0 3.9----30.50+0.00- 44.6----
2024-04-17 12:50 am- 0.0 3.9 3.0 155.4SSE30.51-- 44.6----
2024-04-17 12:40 am- 0.0 3.9----30.50-- 44.6----
2024-04-17 12:30 am- 1.9 3.9----30.50-- 44.4----
2024-04-17 12:20 am- 1.9 3.9 3.0 155.4 N30.50-- 44.6----
2024-04-17 12:10 am- 1.9 3.9 3.0-5.4 N30.50-- 44.6----
2024-04-17 12:00 am- 1.9 3.9----30.50+0.00- 44.6----
2024-04-16 11:50 pm- 1.9 5.8 3.3 75.2 W30.50-- 44.6----
2024-04-16 11:40 pm- 1.9 5.8----30.50-- 44.6----
2024-04-16 11:30 pm- 1.9 5.8----30.50-- 44.6----
2024-04-16 11:20 pm- 1.9 5.8 3.3 75.3 W30.50-- 44.6----
2024-04-16 11:10 pm- 1.9 5.8 3.3-5.3 W30.50-- 44.6----
2024-04-16 11:00 pm- 1.9 5.8----30.50+0.00- 44.6----
2024-04-16 10:50 pm- 1.9 5.8 3.3 75.4 W30.50-- 44.6----
2024-04-16 10:40 pm- 1.9 5.8----30.50-- 44.6----
2024-04-16 10:30 pm- 1.9 7.8----30.50-- 44.6----
2024-04-16 10:20 pm- 1.9 5.8 3.3 85.6WSW30.50-- 44.6----
2024-04-16 10:10 pm- 1.9 5.8 3.3-5.6WSW30.50-- 44.6----
2024-04-16 10:00 pm- 1.9 5.8----30.50+0.00- 44.6----
2024-04-16 09:50 pm- 1.9 7.8 3.6 75.7 W30.50-- 44.6----
2024-04-16 09:40 pm- 1.9 5.8 3.6-5.7 W30.50-- 44.6----
2024-04-16 09:30 pm- 1.9 7.8----30.50-- 44.6----
2024-04-16 09:20 pm- 1.9 5.8 3.6 75.5 W30.50-- 44.6----
2024-04-16 09:10 pm- 1.9 7.8 3.6-5.5 W30.50-- 44.6----
2024-04-16 09:00 pm- 1.9 9.7----30.50+0.00- 44.6----
2024-04-16 08:50 pm- 1.9 5.8 3.6 85.6 W30.50-- 44.8----
2024-04-16 08:40 pm- 1.9 5.8----30.50-- 44.8----
2024-04-16 08:30 pm- 1.9 7.8----30.50-- 44.8----
2024-04-16 08:20 pm- 1.9 7.8 3.6 75.4 W30.50-- 44.8----
2024-04-16 08:10 pm- 1.9 7.8 3.6-5.4 W30.50-- 44.8----
2024-04-16 08:00 pm- 1.9 5.8----30.50-0.01- 44.8----
2024-04-16 07:50 pm- 1.9 5.8 3.6 75.6 W30.50-- 44.8----
2024-04-16 07:40 pm- 1.9 5.8----30.50-- 44.8----
2024-04-16 07:30 pm- 1.9 7.8----30.50-- 44.8----
2024-04-16 07:20 pm- 3.9 7.8 3.6 75.3WSW30.49-- 44.8----
2024-04-16 07:10 pm- 3.9 7.8 3.6-5.3WSW30.49-- 44.8----
2024-04-16 07:00 pm- 3.9 7.8----30.50-0.03- 44.8----
2024-04-16 06:50 pm- 3.9 9.7 3.6 75.6 W30.50-- 44.8----
2024-04-16 06:40 pm- 3.9 7.8----30.50-- 45.0----
2024-04-16 06:30 pm- 3.9 7.8----30.51-- 45.0----
2024-04-16 06:20 pm- 3.9 9.7 3.6 85.5WSW30.51-- 45.1----
2024-04-16 06:10 pm- 3.9 9.7 3.6-5.5WSW30.51-- 45.1----
2024-04-16 06:00 pm- 3.9 9.7----30.51-0.02- 45.1----
2024-04-16 05:50 pm- 3.9 9.7 3.6 85.5 W30.51-- 45.1----
2024-04-16 05:40 pm- 3.9 9.7 3.6-5.5 W30.51-- 45.1----
2024-04-16 05:30 pm- 3.9 9.7----30.51-- 45.1----
2024-04-16 05:20 pm- 3.9 9.7 3.3 85.3 W30.51-- 45.1----
2024-04-16 05:10 pm- 5.8 9.7 3.3-5.3 W30.51-- 45.1----
2024-04-16 05:00 pm- 3.9 9.7----30.51-0.02- 45.1----
2024-04-16 04:50 pm- 5.8 9.7 3.6 75.3 W30.52-- 45.1----
2024-04-16 04:40 pm- 3.9 9.7----30.52-- 45.1----
2024-04-16 04:30 pm- 3.9 9.7----30.52-- 45.1----
2024-04-16 04:20 pm- 3.9 9.7 3.9 85.5 W30.52-- 45.1----
2024-04-16 04:10 pm- 3.9 9.7 3.9-5.5 W30.53-- 45.1----
2024-04-16 04:00 pm- 3.9 9.7----30.52+0.00- 45.1----
2024-04-16 03:50 pm- 3.9 9.7 3.6 85.2 W30.53-- 45.0----
2024-04-16 03:40 pm- 3.9 9.7----30.53-- 45.1----
2024-04-16 03:30 pm- 3.9 9.7----30.53-- 45.0----
2024-04-16 03:10 pm- 3.9 9.7 3.6-5.6WNW30.53-- 44.8----
2024-04-16 03:00 pm- 3.9 9.7----30.53+0.00- 44.8----
2024-04-16 02:50 pm- 3.9 7.8 3.6 75.5WNW30.53-- 44.8----
2024-04-16 02:40 pm- 3.9 7.8----30.53-- 44.6----
2024-04-16 02:30 pm- 3.9 9.7----30.53-- 44.6----
2024-04-16 02:20 pm- 3.9 7.8 3.9 75.4WNW30.53-- 44.6----
2024-04-16 02:10 pm- 3.9 9.7 3.9-5.4WNW30.53-- 44.6----
2024-04-16 02:00 pm- 3.9 7.8----30.53+0.00- 44.6----
2024-04-16 01:50 pm- 3.9 9.7 3.9 85.3 W30.53-- 44.6----

Detailed Wave Summary
for 46084 as of (2:10 pm AKDT)
2210 GMT on 04/17/2024:

These wave data are displayed in rounded times.

     

Click on the graph icon in the table below to see a time series plot of the last five days of that observation.

5-day plot - Significant Wave Height Significant Wave Height (WVHT): 2.6 ft
5-day plot - Swell Height Swell Height (SwH): 2.3 ft
5-day plot - Swell Period Swell Period (SwP): 12.1 sec
5-day plot - Swell Direction Swell Direction (SwD):SSW
5-day plot - Wind Wave Height Wind Wave Height (WWH): 1.0 ft
5-day plot - Wind Wave Period Wind Wave Period (WWP): 4.0 sec
5-day plot - Wind Wave Direction Wind Wave Direction (WWD): S
5-day plot - Average Wave Period Average Wave Period (APD): 6.0 sec
Previous observations
TIME
(AKDT)
5-day plot - Wave Height
WVHT
ft
5-day plot - Swell Height
SwH
ft
5-day plot - Swell Period
SwP
sec
5-day plot - Swell Direction
SwD
 
5-day plot - Wind Wave Height
WWH
ft
5-day plot - Wind Wave Period
WWP
sec
5-day plot - Wind Wave Direction
WWD
 
5-day plot - Wave Steepness
STEEPNESS
 
5-day plot - Average Wave Period
APD
sec
2024-04-17 01:40 pm 2.3 2.0 12.1 SW 1.3 3.4 SSE N/A 5.5
2024-04-17 01:10 pm 2.3 2.0 12.1SSW 1.3 3.3 SSE N/A 5.3
2024-04-17 12:40 pm 2.3 2.0 12.1 SW 1.3 3.2 SSE N/A 5.1
2024-04-17 12:10 pm 2.3 2.0 11.4WSW 1.0 3.3 S N/A 5.2
2024-04-17 11:40 am 2.3 2.0 13.8 SE 1.0 3.0 SSE N/A 5.1
2024-04-17 11:10 am 2.3 2.3 17.4WSW 1.0 2.6 SSE N/A 5.6
2024-04-17 10:40 am 2.3 2.0 11.4WSW 0.7 2.5 SSE N/A 5.5
2024-04-17 10:10 am 2.0 2.0 13.8SSW 0.7 3.7 NW N/A 6.1
2024-04-17 09:40 am 2.0 2.0 14.8 S 0.7 4.0 NW N/A 6.6
2024-04-17 09:10 am 2.3 2.3 13.8 SW 0.7 3.6 N N/A 6.8
2024-04-17 08:40 am 2.3 2.3 13.8WNW 0.7 3.8 NNW N/A 7.0
2024-04-17 08:10 am 2.3 2.3 19.0 SE 0.7 3.8 NW N/A 6.9
2024-04-17 07:40 am 2.3 2.3 14.8SSW 0.7 4.0 NW N/A 7.0
2024-04-17 07:10 am 2.3 2.3 17.4 SW 0.7 3.7 WNW N/A 6.9
2024-04-17 06:40 am 2.3 2.3 17.4SSE 0.7 3.6 NW N/A 7.2
2024-04-17 06:10 am 2.3 2.3 14.8SSW 0.7 3.8 WNW N/A 6.7
2024-04-17 05:40 am 2.3 2.3 7.1 W 0.7 3.4 NNW N/A 6.5
2024-04-17 05:10 am 2.6 2.3 13.8SSE 0.7 3.4 NW N/A 6.7
2024-04-17 04:40 am 2.6 2.3 17.4 N 0.7 4.0 NW N/A 6.4
2024-04-17 04:10 am 2.6 2.3 13.8WSW 1.0 4.0 NW N/A 6.3
2024-04-17 03:40 am 2.6 2.6 14.8SSW 1.0 4.0 NW SWELL 6.1
2024-04-17 03:10 am 2.6 2.3 7.1 W 1.0 3.7 N N/A 5.4
2024-04-17 02:40 am 3.0 2.6 14.8SSE 1.0 3.7 N SWELL 5.7
2024-04-17 02:10 am 3.0 2.6 19.0 NW 1.3 4.0 N SWELL 5.4
2024-04-17 01:40 am 3.0 2.6 14.8WSW 1.3 3.3 N SWELL 5.3
2024-04-17 01:10 am 3.0 2.3 7.1WSW 1.3 3.8 N AVERAGE 5.0
2024-04-17 12:40 am 3.0 2.6 14.8SSE 1.3 3.7 N SWELL 5.4
2024-04-17 12:10 am 3.0 3.0 14.8 N 1.3 3.3 N SWELL 5.4
2024-04-16 11:40 pm 3.3 3.0 7.1 W 1.3 3.7 NNW AVERAGE 5.2
2024-04-16 11:10 pm 3.3 3.0 7.1 W 1.3 3.7 N AVERAGE 5.3
2024-04-16 10:40 pm 3.3 3.0 7.1 W 1.3 4.0 NNW AVERAGE 5.4
2024-04-16 10:10 pm 3.3 3.0 8.3WSW 1.3 3.8 N SWELL 5.6
2024-04-16 09:40 pm 3.6 3.3 7.1 W 1.3 3.6 NNW AVERAGE 5.7
2024-04-16 09:10 pm 3.6 3.3 7.1 W 1.3 3.7 N AVERAGE 5.5
2024-04-16 08:40 pm 3.6 3.3 7.7 W 1.3 3.6 NNW AVERAGE 5.6
2024-04-16 08:10 pm 3.6 3.3 6.7 W 1.3 4.0 NW STEEP 5.4
2024-04-16 07:40 pm 3.6 3.3 7.1 W 1.3 3.3 NNW AVERAGE 5.6
2024-04-16 07:10 pm 3.6 3.3 7.1WSW 1.3 3.6 NNW AVERAGE 5.3
2024-04-16 06:40 pm 3.6 3.3 7.1 W 1.3 3.8 NW AVERAGE 5.6
2024-04-16 06:10 pm 3.6 3.3 7.7WSW 1.6 3.3 N AVERAGE 5.5
2024-04-16 05:40 pm 3.6 3.3 7.7 W 1.6 3.2 NNW AVERAGE 5.5
2024-04-16 05:10 pm 3.3 3.0 7.7 W 1.3 3.3 NNW AVERAGE 5.3
2024-04-16 04:40 pm 3.6 3.3 6.7 W 1.6 3.7 NW STEEP 5.3
2024-04-16 04:10 pm 3.9 3.6 8.3 W 1.6 2.9 NNW AVERAGE 5.5
2024-04-16 03:40 pm 3.6 3.3 7.7 W 1.6 3.4 NNW AVERAGE 5.2
2024-04-16 03:10 pm 3.6 3.3 7.7WNW 1.3 3.1 NNW AVERAGE 5.6
2024-04-16 02:40 pm 3.6 3.3 7.1WNW 1.6 3.8 NW AVERAGE 5.5
2024-04-16 02:10 pm 3.9 3.6 7.1WNW 1.6 2.9 NNW AVERAGE 5.4

Plot of wave energy versus frequency (and period)